sat.trackr.live / text

‹ back to catalog

STARLINK-37602

NORAD 69358 · 2026-123F

PAYLOAD ACTIVE UNKNOWN

§ Identity

Operator
Country
US
Launch date
2026-06-04
Launch site
AFETR
Launch vehicle
Mass (kg)
RCS (m²)

Purposes: comms

External: N2YO · Heavens-Above · Gunter

§ Orbital elements

Epoch: 2026-09-19T23:04:29.896896Z

Period
93.85 min
Inclination
53.1603°
Eccentricity
0.0001129
Mean motion
15.34407151 rev/d
Perigee alt
461.9 km
Apogee alt
463.5 km
Semi-major
6,840.8 km
B*
4.7278e-4
RAAN
144.5237°
Arg perigee
63.4140°
Mean anomaly
296.6978°
Rev number
1,678

§ Raw data

STARLINK-376021 69358U 26123F   26262.96145714  .00015634  00000+0  47278-3 0  99992 69358  53.1603 144.5237 0001129  63.4140 296.6978 15.34407151 16788

JSON: /api/v1/satellites/69358 · /tle

For live sub-satellite position, see the globe view (requires WebGL).

§ Visibility from observer

Set your observer location to see the next 7 days of passes ≥ 10°. The values pass through the URL so the page stays shareable.

No JS? Fill the form by hand. The geolocation button needs JavaScript.